This is the latest recevied weather packets stored in our database for station/object N9WHM. If no packets are shown the sender has not sent any weather packets the latest 1 day(s).
| Time | Temp. | Humidity | Pressure | Rain* | Wind** | Luminosity | Snow |
|---|---|---|---|---|---|---|---|
| 1778115588 | 14.44° C | 28% | 1014.9 hPa | 0 mm | - | 20 W/m² | - |
| 1778114377 | 14.44° C | 26% | 1015.1 hPa | 0 mm | - | 29 W/m² | - |
| 1778114071 | 15° C | 26% | 1015.1 hPa | 0 mm | - | 36 W/m² | - |
| 1778112851 | 14.44° C | 26% | 1015.1 hPa | 0 mm | - | 87 W/m² | - |
| 1778109816 | 15° C | 26% | 1015.4 hPa | 0 mm | - | 169 W/m² | - |
| 1778106778 | 15.56° C | 26% | 1015.7 hPa | 0 mm | - | 202 W/m² | - |
| 1778106170 | 15.56° C | 27% | 1015.7 hPa | 0 mm | - | 444 W/m² | - |
| 1778105258 | 14.44° C | 26% | 1016.1 hPa | 0 mm | - | 154 W/m² | - |
| 1778104650 | 15° C | 27% | 1015.8 hPa | 0 mm | - | 518 W/m² | - |
| 1778104042 | 14.44° C | 27% | 1016.4 hPa | 0 mm | - | 185 W/m² | - |
| 1778101919 | 15° C | 27% | 1016.5 hPa | 0 mm | - | 199 W/m² | - |
| 1778101313 | 15° C | 26% | 1016.6 hPa | 0 mm | - | 767 W/m² | - |
| 1778100408 | 15° C | 27% | 1016.8 hPa | 0 mm | - | 401 W/m² | - |
| 1778099803 | 14.44° C | 27% | 1016.9 hPa | 0 mm | - | 776 W/m² | - |
| 1778098893 | 15.56° C | 26% | 1017.1 hPa | 0 mm | - | 782 W/m² | - |
| 1778098287 | 13.89° C | 29% | 1017.2 hPa | 0 mm | - | 801 W/m² | - |
| 1778097377 | 14.44° C | 27% | 1017.1 hPa | 0 mm | - | 841 W/m² | - |
| 1778096771 | 13.89° C | 30% | 1017.4 hPa | 0 mm | - | 831 W/m² | - |
| 1778096165 | 13.89° C | 27% | 1017.5 hPa | 0 mm | - | 831 W/m² | - |
| 1778093133 | 13.33° C | 30% | 1018 hPa | 0 mm | - | 637 W/m² | - |
| 1778092830 | 13.33° C | 30% | 1018.2 hPa | 0 mm | - | 870 W/m² | - |
| 1778092525 | 13.33° C | 31% | 1018.1 hPa | 0 mm | - | 857 W/m² | - |
| 1778091920 | 12.78° C | 32% | 1018.3 hPa | 0 mm | - | 826 W/m² | - |
| 1778091617 | 12.78° C | 31% | 1018.2 hPa | 0 mm | - | 190 W/m² | - |
| 1778090101 | 12.78° C | 32% | 1018.4 hPa | 0 mm | - | 189 W/m² | - |
* Rain latest hour (hover to see other rain measurements)
** Current wind speed in m/s (hover to see current wind gust speed)